Rt 113 & Rt 16, Ellendale DE USA current weather conditions

sailwx.info

Wind from 010 at 8 knots gusting 10

Air temperature 10.8° C
Dewpoint 9.1° C

Last reported at 2020-Jan-25 09:55 UTC.
Time now 2020-Jan-25 11:05 UTC

Location: N 38°48' W 075°26'.
View on Google Maps.

See reports from other nearby stations

  
Tides and Currents Weather Stations Pressure Air Temp Water Temp Dewpoint Dewpoint Depression Visibility Wind Speed Wind Dir Waves Ship Positions
date/time (UTC)wind fromknots sea level pressurealtimeterstation pressurevisibilityair tempwater tempwave heightnotes
2020-Jan-25 09:55 010 8 gusting 10 10.8
2020-Jan-25 09:50 010 5 gusting 10 10.8
2020-Jan-25 09:45 010 6 gusting 11 10.8
2020-Jan-25 09:40 010 6 gusting 12 10.8
2020-Jan-25 09:35 010 7 gusting 15 10.8
2020-Jan-25 09:30 010 10 gusting 17 10.7
2020-Jan-25 09:25 010 10 gusting 17 10.6
2020-Jan-25 09:20 010 8 gusting 12 10.3
2020-Jan-25 09:15 010 5 gusting 11 10.3
2020-Jan-25 09:10 010 5 gusting 11 10.2
2020-Jan-25 09:05 010 5 gusting 13 10.2
2020-Jan-25 09:00 010 8 gusting 14 10.3
2020-Jan-25 08:55 010 10 gusting 14 10.4
2020-Jan-25 08:50 010 8 gusting 14 10.6
2020-Jan-25 08:45 010 8 gusting 11 10.7
2020-Jan-25 08:40 10.7
2020-Jan-25 08:35 010 5 gusting 11 10.7
2020-Jan-25 08:30 010 7 gusting 12 10.8
2020-Jan-25 08:25 010 7 gusting 14 10.8
2020-Jan-25 08:20 010 9 gusting 15 10.8
2020-Jan-25 08:15 010 11 gusting 15 10.8
2020-Jan-25 08:10 010 6 gusting 14 10.8
2020-Jan-25 08:05 010 9 gusting 16 10.9
2020-Jan-25 08:00 010 8 gusting 18 10.8
2020-Jan-25 07:55 010 8 gusting 18 10.7
2020-Jan-25 07:50 010 8 gusting 16 10.6
2020-Jan-25 07:45 010 12 gusting 16 10.6
2020-Jan-25 07:40 010 10 gusting 20 10.6
2020-Jan-25 07:35 010 12 gusting 20 10.7
2020-Jan-25 07:30 10.6
2020-Jan-25 07:25 010 6 gusting 13 10.7
2020-Jan-25 07:20 010 8 gusting 13 10.7
2020-Jan-25 07:15 10.7
2020-Jan-25 07:10 010 11 gusting 16 10.6
2020-Jan-25 07:05 010 9 gusting 16 10.4
2020-Jan-25 07:00 010 7 gusting 12 10.3
2020-Jan-25 06:55 010 9 gusting 13 10.3
2020-Jan-25 06:50 010 7 gusting 13 10.2
2020-Jan-25 06:45 010 8 gusting 13 10.2
2020-Jan-25 06:40 010 8 gusting 14 10.1
2020-Jan-25 06:35 010 8 gusting 15 10.1
2020-Jan-25 06:30 010 10 gusting 15 10.0
2020-Jan-25 06:25 010 10 gusting 12 9.8
2020-Jan-25 06:20 010 8 gusting 12 9.6
2020-Jan-25 06:15 010 7 gusting 12 9.6
2020-Jan-25 06:10 010 7 gusting 12 9.6
2020-Jan-25 06:05 010 6 gusting 14 9.6
2020-Jan-25 06:00 010 10 gusting 14 9.6
2020-Jan-25 05:55 010 8 gusting 13 9.5
2020-Jan-25 05:50 010 10 gusting 13 9.3
2020-Jan-25 05:45 010 8 gusting 12 9.3
2020-Jan-25 05:40 010 6 gusting 10 9.2
2020-Jan-25 05:35 010 6 gusting 14 9.1
2020-Jan-25 05:30 010 9 gusting 14 9.2
2020-Jan-25 05:25 010 8 gusting 12 9.1
2020-Jan-25 05:20 010 6 gusting 12 9.1
2020-Jan-25 05:15 010 8 gusting 12 9.1
2020-Jan-25 05:10 010 7 gusting 10 9.1
2020-Jan-25 05:05 010 6 gusting 12 9.0
2020-Jan-25 05:00 010 8 gusting 12 9.0
2020-Jan-25 04:55 010 8 gusting 12 9.0
2020-Jan-25 04:50 010 8 gusting 12 8.7
2020-Jan-25 04:45 010 9 gusting 12 8.7
2020-Jan-25 04:40 010 9 gusting 12 8.6
2020-Jan-25 04:35 010 9 gusting 12 8.6
2020-Jan-25 04:30 010 8 gusting 11 8.5
2020-Jan-25 04:25 010 7 gusting 9 8.3
2020-Jan-25 04:20 010 8 gusting 10 8.2
2020-Jan-25 04:15 010 7 gusting 10 8.2
2020-Jan-25 04:10 010 7 gusting 12 8.1
2020-Jan-25 04:05 010 7 gusting 12 8.1
2020-Jan-25 04:00 010 6 gusting 10 7.8
2020-Jan-25 03:55 010 6 gusting 10 7.8
2020-Jan-25 03:50 010 6 gusting 10 7.7
2020-Jan-25 03:45 010 6 gusting 9 7.6
2020-Jan-25 03:40 010 6 gusting 10 7.6
2020-Jan-25 03:35 010 6 gusting 11 7.6
2020-Jan-25 03:30 010 8 gusting 11 7.6
2020-Jan-25 03:25 7.6
2020-Jan-25 03:20 010 7 gusting 12 7.6
2020-Jan-25 03:15 010 8 gusting 11 7.6
2020-Jan-25 03:10 010 6 gusting 11 7.6
2020-Jan-25 03:05 010 7 gusting 11 7.6
2020-Jan-25 03:00 7.6
2020-Jan-25 02:55 7.7
2020-Jan-25 02:50 7.7
2020-Jan-25 02:45 7.8
2020-Jan-25 02:40 7.8
2020-Jan-25 02:35 8.0
2020-Jan-25 02:30 8.1
2020-Jan-25 02:25 8.2
2020-Jan-25 02:20 8.3
2020-Jan-25 02:15 8.3
2020-Jan-25 02:10 010 8 gusting 14 8.6
2020-Jan-25 02:05 010 8 gusting 13 8.5
2020-Jan-25 02:00 010 8 gusting 13 8.5
2020-Jan-25 01:55 010 8 gusting 12 8.3
2020-Jan-25 01:50 010 8 gusting 11 8.2
2020-Jan-25 01:45 010 7 gusting 10 8.2
2020-Jan-25 01:40 010 6 gusting 10 8.1
2020-Jan-25 01:35 010 5 gusting 10 8.0
2020-Jan-25 01:30 010 5 gusting 9 7.8
2020-Jan-25 01:25 010 6 gusting 9 7.7
2020-Jan-25 01:20 010 5 gusting 8 7.3
2020-Jan-25 01:15 010 6 gusting 8 7.2
2020-Jan-25 01:10 010 5 gusting 8 7.2
2020-Jan-25 01:05 010 5 gusting 8 7.2
2020-Jan-25 01:00 010 4 gusting 7 7.3
2020-Jan-25 00:55 010 4 gusting 7 7.6
2020-Jan-25 00:50 010 4 gusting 8 7.6
2020-Jan-25 00:45 010 6 gusting 10 7.6
2020-Jan-25 00:40 010 7 gusting 11 7.6
2020-Jan-25 00:35 010 6 gusting 11 7.6
2020-Jan-25 00:30 010 7 gusting 11 7.6
2020-Jan-25 00:25 010 8 gusting 11 7.7
2020-Jan-25 00:20 010 9 gusting 11 7.8
2020-Jan-25 00:15 010 8 gusting 11 8.0
2020-Jan-25 00:10 010 7 gusting 11 8.0
2020-Jan-25 00:05 010 7 gusting 12 8.1
2020-Jan-25 00:00 010 9 gusting 12 8.1
2020-Jan-24 23:55 010 8 gusting 11 8.1
2020-Jan-24 23:50 010 7 gusting 11 8.1
2020-Jan-24 23:45 010 9 gusting 11 8.2
2020-Jan-24 23:40 010 7 gusting 12 8.2
2020-Jan-24 23:35 010 7 gusting 11 8.2
2020-Jan-24 23:30 010 9 gusting 12 8.2
2020-Jan-24 23:25 010 8 gusting 13 8.2
2020-Jan-24 23:20 010 8 gusting 13 8.1
2020-Jan-24 23:15 010 7 gusting 10 8.1
2020-Jan-24 23:10 010 7 gusting 11 8.2
2020-Jan-24 23:05 010 8 gusting 13 8.2
2020-Jan-24 23:00 010 9 gusting 13 8.2
2020-Jan-24 22:55 8.2
2020-Jan-24 22:50 8.2
2020-Jan-24 22:45 8.2
2020-Jan-24 22:40 8.2
2020-Jan-24 22:35 8.2
2020-Jan-24 22:30 8.2
2020-Jan-24 22:25 8.2
2020-Jan-24 22:20 8.2
2020-Jan-24 22:15 8.2
2020-Jan-24 22:10 8.3
2020-Jan-24 22:05 8.3
2020-Jan-24 22:00 8.5
2020-Jan-24 21:55 8.6
2020-Jan-24 21:50 8.7
2020-Jan-24 21:45 8.8
2020-Jan-24 21:40 8.8
2020-Jan-24 21:35 9.0
2020-Jan-24 21:30 9.0
2020-Jan-24 21:25 9.1
2020-Jan-24 21:20 9.1
2020-Jan-24 21:15 9.2
2020-Jan-24 21:10 9.5
2020-Jan-24 21:05 9.6
2020-Jan-24 21:00 9.6
2020-Jan-24 20:55 9.6
2020-Jan-24 20:50 9.7
2020-Jan-24 20:45 9.8
2020-Jan-24 20:40 10.1
2020-Jan-24 20:35 10.2
2020-Jan-24 20:30 10.3
2020-Jan-24 20:25 10.7
2020-Jan-24 20:20 11.1
2020-Jan-24 20:15 10.9
2020-Jan-24 20:10 11.1
2020-Jan-24 20:05 10.9
2020-Jan-24 20:00 11.1
2020-Jan-24 19:55 10.9
2020-Jan-24 19:50 10.8
2020-Jan-24 19:45 10.8
2020-Jan-24 19:40 10.8
2020-Jan-24 19:35 11.1
2020-Jan-24 19:30 11.1
2020-Jan-24 19:25 11.1
2020-Jan-24 19:20 11.1
2020-Jan-24 19:15 11.1
2020-Jan-24 19:10 11.2
2020-Jan-24 19:05 11.2
2020-Jan-24 19:00 11.2
2020-Jan-24 18:55 11.1
2020-Jan-24 18:50 11.2
2020-Jan-24 18:45 11.1
2020-Jan-24 18:40 10.9
2020-Jan-24 18:35 10.8
2020-Jan-24 18:30 10.8
2020-Jan-24 18:25 11.1
2020-Jan-24 18:20 10.9
2020-Jan-24 18:15 10.7
2020-Jan-24 18:10 10.7
2020-Jan-24 18:05 10.6
2020-Jan-24 18:00 10.8
2020-Jan-24 17:55 10.8
2020-Jan-24 17:50 10.3
2020-Jan-24 17:45 10.3
2020-Jan-24 17:40 10.3
2020-Jan-24 17:35 10.3
2020-Jan-24 17:30 10.3
2020-Jan-24 17:25 10.3
2020-Jan-24 17:20 10.3
2020-Jan-24 17:15 10.2
2020-Jan-24 17:10 10.2
2020-Jan-24 17:05 10.0
2020-Jan-24 17:00 9.8
2020-Jan-24 16:55 9.7
2020-Jan-24 16:50 9.6
2020-Jan-24 16:45 9.5
2020-Jan-24 16:40 9.5
2020-Jan-24 16:35 9.1
2020-Jan-24 16:30 8.8
2020-Jan-24 16:25 8.7
2020-Jan-24 16:20 8.6
2020-Jan-24 16:15 8.3
2020-Jan-24 16:10 8.2
2020-Jan-24 16:05 8.1
2020-Jan-24 16:00 8.2
2020-Jan-24 15:55 8.3
2020-Jan-24 15:50 8.3
2020-Jan-24 15:45 8.1
2020-Jan-24 15:40 8.1
2020-Jan-24 15:35 7.7
2020-Jan-24 15:30 7.6
2020-Jan-24 15:25 7.3
2020-Jan-24 15:20 7.0
2020-Jan-24 15:15 6.8
2020-Jan-24 15:10 6.6
2020-Jan-24 15:05 6.3
2020-Jan-24 15:00 6.1
2020-Jan-24 14:55 6.0
2020-Jan-24 14:50 5.7
2020-Jan-24 14:45 5.6
2020-Jan-24 14:40 5.5
2020-Jan-24 14:35 5.2
2020-Jan-24 14:30 5.1
2020-Jan-24 14:25 5.0
2020-Jan-24 14:20 4.7
2020-Jan-24 14:15 4.7
2020-Jan-24 14:10 4.6
2020-Jan-24 14:05 4.3
2020-Jan-24 14:00 4.1
2020-Jan-24 13:55 4.1
2020-Jan-24 13:50 3.9
2020-Jan-24 13:45 3.6
2020-Jan-24 13:40 3.4
2020-Jan-24 13:35 3.1
2020-Jan-24 13:30 2.7
2020-Jan-24 13:25 2.5
2020-Jan-24 13:20 2.1
2020-Jan-24 13:15 2.0
2020-Jan-24 13:10 1.7
2020-Jan-24 13:05 1.6
2020-Jan-24 13:00 1.6
2020-Jan-24 12:55 1.5
2020-Jan-24 12:50 1.4
2020-Jan-24 12:45 1.4
2020-Jan-24 12:40 1.1
2020-Jan-24 12:35 0.8
2020-Jan-24 12:30 0.8
2020-Jan-24 12:25 0.7
2020-Jan-24 12:20 0.7
2020-Jan-24 12:15 0.8
2020-Jan-24 12:10 0.7
2020-Jan-24 12:05 0.7
2020-Jan-24 12:00 0.6
2020-Jan-24 11:55 0.5
2020-Jan-24 11:50 0.3
2020-Jan-24 11:45 0.2
2020-Jan-24 11:40 0.1
2020-Jan-24 11:35 0.1
2020-Jan-24 11:30 0.1
2020-Jan-24 11:25 0.1
2020-Jan-24 11:20 0.1
2020-Jan-24 11:15 0.1
2020-Jan-24 11:10 0.1
2020-Jan-24 11:05 0.1
2020-Jan-24 11:00 0.1
2020-Jan-24 10:55 0.1
2020-Jan-24 10:50 -0.0
2020-Jan-24 10:45 -0.0
2020-Jan-24 10:40 -0.1
2020-Jan-24 10:35 -0.1
2020-Jan-24 10:30 -0.1
2020-Jan-24 10:25 -0.3
2020-Jan-24 10:20 -0.4
2020-Jan-24 10:15 -0.4
2020-Jan-24 10:10 -0.4
2020-Jan-24 10:05 -0.3
2020-Jan-24 10:00 -0.1
2020-Jan-24 09:55 -0.1
2020-Jan-24 09:50 -0.3
2020-Jan-24 09:45 -0.4
2020-Jan-24 09:40 -0.1
2020-Jan-24 09:35 -0.4
2020-Jan-24 09:30 -0.8
2020-Jan-24 09:25 -0.5
2020-Jan-24 09:20 -0.5
2020-Jan-24 09:15 -0.8
2020-Jan-24 09:10 -0.7
2020-Jan-24 09:05 -0.5
2020-Jan-24 09:00 -0.5
2020-Jan-24 08:55 -0.9
2020-Jan-24 08:50 -1.0
2020-Jan-24 08:45 -1.1
2020-Jan-24 08:40 -1.3
2020-Jan-24 08:35 -1.3
2020-Jan-24 08:30 -1.1
2020-Jan-24 08:25 -1.1
2020-Jan-24 08:20 -1.0
2020-Jan-24 08:15 -0.9
2020-Jan-24 08:10 -0.9
2020-Jan-24 08:05 -0.8
2020-Jan-24 08:00 -0.8
2020-Jan-24 07:55 -0.5
2020-Jan-24 07:50 -0.5
2020-Jan-24 07:45 -0.5
2020-Jan-24 07:40 -0.4
2020-Jan-24 07:35 -0.1
2020-Jan-24 07:30 0.1
2020-Jan-24 07:25 -0.3
2020-Jan-24 07:20 -0.3
2020-Jan-24 07:15 -0.4
2020-Jan-24 07:10 075 2 gusting 3 -0.4
2020-Jan-24 07:05 -0.4
2020-Jan-24 07:00 0.1
2020-Jan-24 06:55 0.1
2020-Jan-24 06:50 -0.0
2020-Jan-24 06:45 -0.3
2020-Jan-24 06:40 -0.4
2020-Jan-24 06:35 -0.5
2020-Jan-24 06:30 -0.9
2020-Jan-24 06:25 -0.9
2020-Jan-24 06:20 -0.8
2020-Jan-24 06:15 -0.7
2020-Jan-24 06:10 -0.5
2020-Jan-24 06:05 -0.4
2020-Jan-24 06:00 -0.4
2020-Jan-24 05:55 -0.4
2020-Jan-24 05:50 -0.4
2020-Jan-24 05:45 -0.3
2020-Jan-24 05:40 -0.0
2020-Jan-24 05:35 -0.0
2020-Jan-24 05:30 -0.0
2020-Jan-24 05:25 -0.0
2020-Jan-24 05:20 -0.1
2020-Jan-24 05:15 -0.1
2020-Jan-24 05:10 -0.3
2020-Jan-24 05:05 -0.4
2020-Jan-24 05:00 -0.5
2020-Jan-24 04:55 -0.5
2020-Jan-24 04:50 075 0 gusting 0 -0.5
2020-Jan-24 04:45 -0.8
2020-Jan-24 04:40 -0.5
2020-Jan-24 04:35 -0.4
2020-Jan-24 04:30 -0.4
2020-Jan-24 04:25 -0.4
2020-Jan-24 04:20 0.1
2020-Jan-24 04:15 0.1
2020-Jan-24 04:10 0.1
2020-Jan-24 04:05 0.1
2020-Jan-24 04:00 0.1
2020-Jan-24 03:55 0.1
2020-Jan-24 03:50 0.1
2020-Jan-24 03:45 -0.0
2020-Jan-24 03:40 -0.0
2020-Jan-24 03:35 0.1
2020-Jan-24 03:30 -0.1
2020-Jan-24 03:25 -0.3
2020-Jan-24 03:20 -0.3
2020-Jan-24 03:15 -0.1
2020-Jan-24 03:10 -0.0
2020-Jan-24 03:05 075 -0.0
2020-Jan-24 03:00 0.1
2020-Jan-24 02:55 0.1
2020-Jan-24 02:50 -0.1
2020-Jan-24 02:45 -0.3
2020-Jan-24 02:40 -0.3
2020-Jan-24 02:35 -0.1
2020-Jan-24 02:30 -0.0
2020-Jan-24 02:25 -0.0
2020-Jan-24 02:20 -0.0
2020-Jan-24 02:15 -0.0
2020-Jan-24 02:10 075 0 gusting 0 -0.0
2020-Jan-24 02:05 -0.1
2020-Jan-24 02:00 -0.1
2020-Jan-24 01:55 -0.1
2020-Jan-24 01:50 075 -0.1
2020-Jan-24 01:45 -0.1
2020-Jan-24 01:40 0.1
2020-Jan-24 01:35 0.2
2020-Jan-24 01:30 0.3
2020-Jan-24 01:25 0.5
2020-Jan-24 01:20 0.3
2020-Jan-24 01:15 0.2
2020-Jan-24 01:10 0.2
2020-Jan-24 01:05 0.2
2020-Jan-24 01:00 0.3
2020-Jan-24 00:55 0.5
2020-Jan-24 00:50 0.6
2020-Jan-24 00:45 0.6
2020-Jan-24 00:40 075 0.6
2020-Jan-24 00:35 0.7
2020-Jan-24 00:30 0.6
2020-Jan-24 00:25 0.7
2020-Jan-24 00:20 0.7
2020-Jan-24 00:15 0.8
2020-Jan-24 00:10 1.0
2020-Jan-24 00:05 1.0
2020-Jan-24 00:00 1.0
2020-Jan-23 23:55 1.0
2020-Jan-23 23:50 1.1
2020-Jan-23 23:45 1.0
2020-Jan-23 23:40 075 1.2
2020-Jan-23 23:35 1.6
2020-Jan-23 23:30 075 0 gusting 2 1.9
2020-Jan-23 23:25 2.1
2020-Jan-23 23:20 075 0 gusting 1 2.1
2020-Jan-23 23:15 075 0 gusting 1 2.1
2020-Jan-23 23:10 2.4
2020-Jan-23 23:05 2.5
2020-Jan-23 23:00 2.6
2020-Jan-23 22:55 2.7
2020-Jan-23 22:50 2.9
2020-Jan-23 22:45 3.0
2020-Jan-23 22:40 3.1
2020-Jan-23 22:35 3.2
2020-Jan-23 22:30 3.2
2020-Jan-23 22:25 3.4
2020-Jan-23 22:20 3.6
2020-Jan-23 22:15 3.9
2020-Jan-23 22:10 4.1
2020-Jan-23 22:05 4.2
2020-Jan-23 22:00 4.3
2020-Jan-23 21:55 4.6
2020-Jan-23 21:50 4.6
2020-Jan-23 21:45 4.7
2020-Jan-23 21:40 4.7
2020-Jan-23 21:35 4.7
2020-Jan-23 21:30 4.7
2020-Jan-23 21:25 4.7
2020-Jan-23 21:20 4.8
2020-Jan-23 21:15 5.0
2020-Jan-23 21:10 5.1
2020-Jan-23 21:05 5.1
2020-Jan-23 21:00 5.1
2020-Jan-23 20:55 5.1
2020-Jan-23 20:50 5.1
2020-Jan-23 20:45 5.0
2020-Jan-23 20:40 5.1
2020-Jan-23 20:35 5.1
2020-Jan-23 20:30 5.1
2020-Jan-23 20:25 5.1
2020-Jan-23 20:20 5.1
2020-Jan-23 20:15 5.1
2020-Jan-23 20:10 5.0
2020-Jan-23 20:05 5.0
2020-Jan-23 20:00 5.0
2020-Jan-23 19:55 5.0
2020-Jan-23 19:50 5.0
2020-Jan-23 19:45 5.0
2020-Jan-23 19:40 5.1
2020-Jan-23 19:35 5.1
2020-Jan-23 19:30 5.2
2020-Jan-23 19:25 5.3
2020-Jan-23 19:20 5.2
2020-Jan-23 19:15 5.3
2020-Jan-23 19:10 5.3
2020-Jan-23 19:05 5.3
2020-Jan-23 19:00 5.5
2020-Jan-23 18:55 5.5
2020-Jan-23 18:50 5.5
2020-Jan-23 18:45 5.5
2020-Jan-23 18:40 5.6
2020-Jan-23 18:35 5.7
2020-Jan-23 18:30 5.6
2020-Jan-23 18:25 5.6
2020-Jan-23 18:20 5.7
2020-Jan-23 18:15 5.6
2020-Jan-23 18:10 5.6
2020-Jan-23 18:05 5.7
2020-Jan-23 18:00 5.8
2020-Jan-23 17:55 5.7
2020-Jan-23 17:50 5.8
2020-Jan-23 17:40 6.0
2020-Jan-23 17:35 5.8
2020-Jan-23 17:30 6.0
2020-Jan-23 17:25 6.0
2020-Jan-23 17:20 5.6
2020-Jan-23 17:15 5.3
2020-Jan-23 17:10 5.3
2020-Jan-23 17:05 5.3
2020-Jan-23 17:00 5.5
2020-Jan-23 16:55 5.5
2020-Jan-23 16:50 5.2
2020-Jan-23 16:45 5.1
2020-Jan-23 16:40 5.1
2020-Jan-23 16:35 5.1
2020-Jan-23 16:30 5.1
2020-Jan-23 16:25 4.8
2020-Jan-23 16:20 4.7
2020-Jan-23 16:15 4.6
2020-Jan-23 16:10 4.7
2020-Jan-23 16:05 4.6
2020-Jan-23 16:00 4.6
2020-Jan-23 15:55 4.5
2020-Jan-23 15:50 4.2
2020-Jan-23 15:45 4.2
2020-Jan-23 15:40 4.1
2020-Jan-23 15:35 3.7
2020-Jan-23 15:30 3.6
2020-Jan-23 15:25 3.5
2020-Jan-23 15:20 3.2
2020-Jan-23 15:15 3.2
2020-Jan-23 15:10 3.1
2020-Jan-23 15:05 3.1
2020-Jan-23 15:00 2.9
2020-Jan-23 14:55 2.7
2020-Jan-23 14:50 2.6
2020-Jan-23 14:45 2.2
2020-Jan-23 14:40 2.1
2020-Jan-23 14:35 1.6
2020-Jan-23 14:30 1.4
2020-Jan-23 14:25 1.1
2020-Jan-23 14:20 1.0
2020-Jan-23 14:15 0.6
2020-Jan-23 14:10 0.3
2020-Jan-23 14:05 0.2
2020-Jan-23 14:00 0.1
2020-Jan-23 13:55 -0.4
2020-Jan-23 13:50 -0.9
2020-Jan-23 13:45 -1.5
2020-Jan-23 13:40 -1.9
2020-Jan-23 13:35 -2.4
2020-Jan-23 13:30 -2.6
2020-Jan-23 13:25 -3.1
2020-Jan-23 13:20 -3.6
2020-Jan-23 13:15 -3.9
2020-Jan-23 13:10 -4.2
2020-Jan-23 13:05 -4.3
2020-Jan-23 13:00 -4.3
2020-Jan-23 12:55 -4.8
2020-Jan-23 12:50 -5.2
2020-Jan-23 12:45 075 0 gusting 1 -5.4
2020-Jan-23 12:40 075 -5.5
2020-Jan-23 12:35 075 -5.9
2020-Jan-23 12:30 -5.9
2020-Jan-23 12:25 075 0 gusting 1 -6.3
2020-Jan-23 12:20 075 0 gusting 2 -6.4
2020-Jan-23 12:15 075 1 gusting 3 -6.5
2020-Jan-23 12:10 075 2 gusting 3 -6.5
2020-Jan-23 12:05 075 1 gusting 2 -6.5
2020-Jan-23 12:00 075 2 gusting 2 -6.4
2020-Jan-23 11:55 -6.4
2020-Jan-23 11:50 075 0 gusting 0 -6.4
2020-Jan-23 11:45 075 -6.4
2020-Jan-23 11:40 075 -6.3
2020-Jan-23 11:35 075 0 gusting 2 -6.2
2020-Jan-23 11:30 075 -6.3
2020-Jan-23 11:25 075 -6.3
2020-Jan-23 11:20 075 -6.4
2020-Jan-23 11:15 075 0 gusting 1 -6.5
2020-Jan-23 11:10 075 1 gusting 1 -6.5
2020-Jan-23 11:05 075 -6.5
2020-Jan-23 11:00 -6.3